Binghamton, NY

11:25 AM EST on November 12, 2019 (GMT -0500)
Binghamton Regional-Link

Weather History for KBGM - September, 2019

Change the Weather History Date:

Saturday, September 14, 2019

  Actual Average Record
Temperature  
Mean Temperature 61 °F 60 °F  
Max Temperature 65 °F 69 °F 89 °F (1952)
Min Temperature 56 °F 51 °F 33 °F (1963)
Degree Days  
Heating Degree Days 4 6  
Month to date heating degree days 58 57  
Since 1 July heating degree days 95 120  
Cooling Degree Days 0 1  
Month to date cooling degree days 9 21  
Year to date cooling degree days 371 369  
Growing Degree Days 10 (Base 50)    
Moisture  
Dew Point 56 °F    
Average Humidity 85    
Maximum Humidity 97    
Minimum Humidity 72    
Precipitation  
Precipitation 0.01 in 0.12 in 1.38 in (1977)
Month to date precipitation 1.57 1.63  
Year to date precipitation 30.36 27.84  
Snow  
Snow 0.00 in 0.00 in 0.00 in (2002)
Month to date snowfall 0.0 0.0  
Since 1 July snowfall 0.0 0.0  
Since 1 September snowfall 0.0 0.0  
Snow Depth 0.00 in    
Sea Level Pressure  
Sea Level Pressure 30.21 in    
Wind  
Wind Speed 9 mph (SSW)    
Max Wind Speed 20 mph    
Max Gust Speed 28 mph    
Visibility 10 miles    
Events Rain    
T = Trace of Precipitation, MM = Missing Value Source: NWS Daily Summary

Daily Weather History Graph

Daily Weather History Graph

Search for Another Location

Airport or City:

Astronomy

Sep. 14, 2019 Rise Set
Actual Time 6:42 AM EDT 7:15 PM EDT
Civil Twilight 6:14 AM EDT 7:43 PM EDT
Nautical Twilight 5:41 AM EDT 8:17 PM EDT
Astronomical Twilight 5:06 AM EDT 8:51 PM EDT
Moon 7:55 PM EDT (9/14) 6:53 AM EDT (9/14)
Length of Visible Light 13h 29m
Length of Day
12h 33m
Full, 100% of the Moon is Illuminated
Sep 14
Full
Sep 21
Last Quarter
Sep 28
New
Oct 5
First Quarter
Oct 13
Full

Hourly Weather History & Observations

Time (EDT) Temp. Dew Point Humidity Pressure Visibility Wind Dir Wind Speed Gust Speed Precip Events Conditions
12:53 AM 57.0 °F 48.0 °F 72% 30.29 in 10.0 mi South 15.0 mph 25.3 mph N/A   Overcast
1:53 AM 57.0 °F 48.9 °F 74% 30.28 in 10.0 mi South 13.8 mph 24.2 mph N/A   Overcast
2:53 AM 55.9 °F 48.9 °F 77% 30.25 in 10.0 mi South 10.4 mph 23.0 mph N/A   Overcast
3:53 AM 55.9 °F 50.0 °F 80% 30.24 in 10.0 mi South 15.0 mph 23.0 mph N/A   Overcast
4:53 AM 55.9 °F 50.0 °F 80% 30.25 in 10.0 mi South 10.4 mph 18.4 mph N/A   Overcast
5:53 AM 57.0 °F 51.1 °F 81% 30.24 in 10.0 mi South 11.5 mph - N/A   Overcast
6:37 AM 57.0 °F 52.0 °F 83% 30.24 in 10.0 mi South 12.7 mph - N/A   Overcast
6:53 AM 57.0 °F 52.0 °F 83% 30.24 in 9.0 mi South 13.8 mph 19.6 mph 0.00 in Rain Light Rain
7:53 AM 57.0 °F 53.1 °F 87% 30.23 in 10.0 mi South 12.7 mph - 0.01 in   Overcast
8:53 AM 57.9 °F 54.0 °F 87% 30.23 in 10.0 mi South 15.0 mph 21.9 mph N/A   Overcast
9:53 AM 59.0 °F 55.0 °F 87% 30.23 in 10.0 mi South 8.1 mph - N/A   Overcast
10:53 AM 60.1 °F 55.9 °F 86% 30.22 in 10.0 mi South 10.4 mph - N/A   Overcast
11:53 AM 61.0 °F 55.9 °F 83% 30.22 in 10.0 mi SSW 10.4 mph 19.6 mph N/A   Overcast
12:53 PM 61.0 °F 57.0 °F 87% 30.21 in 10.0 mi Variable 5.8 mph - N/A   Overcast
1:53 PM 62.1 °F 57.9 °F 86% 30.19 in 10.0 mi SSW 8.1 mph - N/A   Overcast
2:46 PM 62.1 °F 57.9 °F 86% 30.19 in 10.0 mi SW 9.2 mph - N/A   Overcast
2:53 PM 62.1 °F 57.9 °F 86% 30.19 in 10.0 mi SW 9.2 mph - N/A   Overcast
3:44 PM 63.0 °F 59.0 °F 87% 30.17 in 10.0 mi SSW 9.2 mph - N/A   Overcast
3:53 PM 63.0 °F 59.0 °F 87% 30.16 in 10.0 mi SSW 9.2 mph - N/A   Overcast
4:53 PM 64.0 °F 59.0 °F 84% 30.15 in 10.0 mi South 6.9 mph - N/A   Overcast
6:53 PM 64.0 °F 60.1 °F 87% 30.17 in 10.0 mi SSW 6.9 mph - N/A   Overcast
7:03 PM 64.0 °F 60.1 °F 87% 30.17 in 10.0 mi SSW 6.9 mph - N/A   Overcast
7:39 PM 63.0 °F 60.1 °F 90% 30.17 in 10.0 mi SSW 6.9 mph - N/A   Overcast
7:49 PM 62.6 °F 60.8 °F 94% 30.17 in 10.0 mi SW 8.1 mph - N/A   Overcast
7:53 PM 63.0 °F 60.1 °F 90% 30.17 in 10.0 mi SW 8.1 mph - N/A   Overcast
8:53 PM 63.0 °F 60.1 °F 90% 30.19 in 10.0 mi SW 8.1 mph - N/A   Overcast
9:05 PM 63.0 °F 60.1 °F 90% 30.19 in 10.0 mi SW 9.2 mph - N/A   Overcast
9:53 PM 63.0 °F 60.1 °F 90% 30.19 in 10.0 mi WSW 6.9 mph - N/A   Overcast
10:53 PM 62.1 °F 60.1 °F 93% 30.20 in 10.0 mi WNW 4.6 mph - 0.00 in   Overcast
11:14 PM 61.0 °F 60.1 °F 97% 30.20 in 10.0 mi WSW 5.8 mph - N/A   Overcast
11:53 PM 60.1 °F 59.0 °F 96% 30.19 in 6.0 mi WSW 4.6 mph - N/A   Mostly Cloudy